Grand Marais, MN

3:34 AM CST on January 18, 2017 (GMT -0600)
Grand Marais-Cook County

Weather History for KCKC - January, 2014

Change the Weather History Date:

Sunday, January 26, 2014

  Actual Average Record
Temperature  
Mean Temperature -8 °F -  
Max Temperature 0 °F 16 °F 33 °F (2006)
Min Temperature -16 °F 1 °F -23 °F (1997)
Degree Days  
Heating Degree Days 73    
Moisture  
Dew Point -16 °F    
Average Humidity 67    
Maximum Humidity 77    
Minimum Humidity 58    
Precipitation  
Precipitation 0.00 in - - ()
Sea Level Pressure  
Sea Level Pressure 29.37 in    
Wind  
Wind Speed 6 mph (NNW)    
Max Wind Speed 21 mph    
Max Gust Speed 33 mph    
Visibility 4 miles    
Events Snow    
Averages and records for this station are not official NWS values.
T = Trace of Precipitation, MM = Missing Value Source: NWS Daily Summary

Daily Weather History Graph

Daily Weather History Graph

Search for Another Location

Airport or City:

Trip Planner

Search our weather history database for the weather conditions in past years. The results will help you decide how hot, cold, wet, or windy it might be!

Date:

Astronomy

Jan. 26, 2014 Rise Set
Actual Time 7:35 AM CST 4:52 PM CST
Civil Twilight 7:02 AM CST 5:26 PM CST
Nautical Twilight 6:24 AM CST 6:04 PM CST
Astronomical Twilight 5:48 AM CST 6:40 PM CST
Moon 3:14 AM CST (1/26) 12:40 PM CST (1/26)
Length of Visible Light 10h 24m
Length of Day
9h 16m
Waning Crescent, 23% of the Moon is Illuminated
Jan 26
Waning Crescent
Jan 30
New
Feb 6
First Quarter
Feb 14
Full
Feb 22
Last Quarter

Hourly Weather History & Observations

Time (CST) Temp. Windchill Dew Point Humidity Pressure Visibility Wind Dir Wind Speed Gust Speed Precip Events Conditions
12:13 AM -9.4 °F - -18.4 °F 65% 29.44 in 10.0 mi Calm Calm - N/A   Mostly Cloudy
12:34 AM -9.4 °F - -18.4 °F 65% 29.43 in 10.0 mi Calm Calm - N/A   Mostly Cloudy
12:54 AM -9.4 °F - -18.4 °F 65% 29.42 in 10.0 mi Calm Calm - N/A   Overcast
1:13 AM -9.4 °F -18.6 °F -18.4 °F 65% 29.42 in 10.0 mi North 3.5 mph - N/A   Overcast
1:34 AM -9.4 °F - -18.4 °F 65% 29.41 in 10.0 mi Calm Calm - N/A   Mostly Cloudy
1:54 AM -11.2 °F - -18.4 °F 70% 29.42 in 10.0 mi Calm Calm - N/A   Mostly Cloudy
2:13 AM -11.2 °F -20.6 °F -18.4 °F 70% 29.42 in 10.0 mi North 3.5 mph - N/A   Overcast
2:34 AM -11.2 °F -20.6 °F -18.4 °F 70% 29.40 in 10.0 mi NNE 3.5 mph - N/A   Overcast
2:54 AM -11.2 °F -23.0 °F -18.4 °F 70% 29.40 in 10.0 mi North 4.6 mph - N/A   Overcast
3:13 AM -9.4 °F -18.6 °F -18.4 °F 65% 29.39 in 10.0 mi North 3.5 mph - N/A   Overcast
3:34 AM -9.4 °F -20.9 °F -18.4 °F 65% 29.38 in 10.0 mi North 4.6 mph - N/A   Overcast
3:53 AM -9.4 °F -20.9 °F -18.4 °F 65% 29.38 in 3.0 mi North 4.6 mph - N/A Snow Light Snow
4:13 AM -9.4 °F -18.6 °F -18.4 °F 65% 29.37 in 3.0 mi North 3.5 mph - N/A Snow Light Snow
4:34 AM -9.4 °F -20.9 °F -16.6 °F 71% 29.36 in 3.0 mi North 4.6 mph - N/A Snow Light Snow
4:53 AM -9.4 °F -18.6 °F -16.6 °F 71% 29.35 in 1.5 mi North 3.5 mph - N/A Snow Light Snow
5:14 AM -9.4 °F -20.9 °F -16.6 °F 71% 29.34 in 2.0 mi North 4.6 mph - N/A Snow Light Snow
5:34 AM -9.4 °F -18.6 °F -16.6 °F 71% 29.32 in 1.5 mi North 3.5 mph - N/A Snow Light Snow
5:53 AM -9.4 °F - -16.6 °F 71% 29.32 in 1.5 mi Calm Calm - N/A Snow Light Snow
6:14 AM -9.4 °F - -16.6 °F 71% 29.30 in 1.8 mi Calm Calm - N/A Snow Light Snow
6:34 AM -9.4 °F - -16.6 °F 71% 29.29 in 1.8 mi Calm Calm - N/A Snow Light Snow
6:53 AM -9.4 °F -20.9 °F -16.6 °F 71% 29.27 in 2.0 mi North 4.6 mph - N/A Snow Light Snow
7:14 AM -9.4 °F -18.6 °F -14.8 °F 77% 29.27 in 1.8 mi North 3.5 mph - N/A Snow Light Snow
7:34 AM -9.4 °F -18.6 °F -14.8 °F 77% 29.27 in 3.0 mi North 3.5 mph - N/A Snow Light Snow
7:53 AM -7.6 °F -18.8 °F -14.8 °F 71% 29.26 in 2.5 mi North 4.6 mph - N/A Snow Light Snow
8:13 AM -7.6 °F -18.8 °F -14.8 °F 71% 29.25 in 1.5 mi North 4.6 mph - N/A Snow Light Snow
8:34 AM -7.6 °F -18.8 °F -14.8 °F 71% 29.24 in 2.0 mi NNE 4.6 mph - N/A Snow Light Snow
8:53 AM -5.8 °F -16.7 °F -13.0 °F 71% 29.23 in 1.5 mi NE 4.6 mph - N/A Snow Light Snow
9:13 AM -5.8 °F -18.4 °F -11.2 °F 77% 29.23 in 1.8 mi NNE 5.8 mph - N/A Snow Light Snow
9:34 AM -5.8 °F -18.4 °F -11.2 °F 77% 29.23 in 2.5 mi NNE 5.8 mph - N/A Snow Light Snow
9:54 AM -4.0 °F -17.8 °F -11.2 °F 71% 29.23 in 1.5 mi NNE 6.9 mph - N/A Snow Light Snow
10:13 AM -4.0 °F -19.0 °F -11.2 °F 71% 29.22 in 2.0 mi NNE 8.1 mph - N/A Snow Light Snow
10:34 AM -4.0 °F -17.8 °F -11.2 °F 71% 29.22 in 2.0 mi NNE 6.9 mph - N/A Snow Light Snow
10:54 AM -2.2 °F -18.9 °F -11.2 °F 66% 29.22 in 1.0 mi NNE 10.4 mph - N/A Snow Light Snow
11:13 AM -2.2 °F -18.0 °F -9.4 °F 71% 29.21 in 1.2 mi NNE 9.2 mph - N/A Snow Light Snow
11:34 AM -0.4 °F -16.7 °F -9.4 °F 66% 29.21 in 1.2 mi NNE 10.4 mph - N/A Snow Light Snow
11:54 AM -0.4 °F -16.7 °F -9.4 °F 66% 29.21 in 1.2 mi North 10.4 mph - N/A Snow Light Snow
12:13 PM -0.4 °F -17.6 °F -9.4 °F 66% 29.21 in 1.2 mi North 11.5 mph - N/A Snow Light Snow
12:34 PM -0.4 °F -15.7 °F -9.4 °F 66% 29.22 in 1.2 mi North 9.2 mph - N/A Snow Light Snow
12:54 PM -0.4 °F -18.4 °F -9.4 °F 66% 29.22 in 1.2 mi North 12.7 mph 16.1 mph N/A Snow Light Snow
1:13 PM -0.4 °F -17.6 °F -9.4 °F 66% 29.22 in 1.8 mi North 11.5 mph 16.1 mph N/A Snow Light Snow
1:34 PM -0.4 °F -15.7 °F -9.4 °F 66% 29.23 in 2.0 mi NNW 9.2 mph 18.4 mph N/A   Haze
1:54 PM -0.4 °F -15.7 °F -9.4 °F 66% 29.23 in 3.0 mi NNW 9.2 mph 16.1 mph N/A   Haze
2:13 PM -0.4 °F -16.7 °F -9.4 °F 66% 29.24 in 4.0 mi NNW 10.4 mph 17.3 mph N/A   Haze
2:34 PM -0.4 °F -15.7 °F -9.4 °F 66% 29.26 in 4.0 mi NNW 9.2 mph 18.4 mph N/A   Haze
2:53 PM -0.4 °F -17.6 °F -9.4 °F 66% 29.27 in 2.5 mi NW 11.5 mph 17.3 mph N/A   Haze
3:13 PM -2.2 °F -22.2 °F -11.2 °F 66% 29.29 in 1.8 mi NNW 15.0 mph 19.6 mph N/A   Haze
3:34 PM -2.2 °F -20.7 °F -11.2 °F 66% 29.30 in 4.0 mi NNW 12.7 mph 18.4 mph N/A   Haze
3:53 PM -2.2 °F -22.2 °F -11.2 °F 66% 29.33 in 4.0 mi NNW 15.0 mph 21.9 mph N/A   Haze
4:13 PM -4.0 °F -26.4 °F -13.0 °F 65% 29.35 in 4.0 mi NW 18.4 mph 23.0 mph N/A   Haze
4:34 PM -5.8 °F -27.5 °F -14.8 °F 65% 29.36 in 4.0 mi NNW 16.1 mph 20.7 mph N/A Snow Light Snow
4:54 PM -5.8 °F -26.8 °F -13.0 °F 71% 29.38 in 2.5 mi NNW 15.0 mph 21.9 mph N/A Snow Light Snow
5:13 PM -5.8 °F -24.4 °F -14.8 °F 65% 29.40 in 7.0 mi NW 11.5 mph 17.3 mph N/A Snow Light Snow
5:34 PM -7.6 °F -30.5 °F -14.8 °F 71% 29.41 in 4.0 mi NW 17.3 mph 25.3 mph N/A Snow Light Snow
5:54 PM -7.6 °F -32.3 °F -16.6 °F 65% 29.43 in 3.0 mi NW 20.7 mph 29.9 mph N/A   Haze
6:13 PM -7.6 °F -30.5 °F -16.6 °F 65% 29.44 in 3.0 mi NNW 17.3 mph 25.3 mph N/A   Haze
6:34 PM -7.6 °F -29.8 °F -16.6 °F 65% 29.45 in 2.5 mi NNW 16.1 mph 27.6 mph N/A   Haze
6:53 PM -9.4 °F -34.1 °F -18.4 °F 65% 29.48 in 2.0 mi NNW 19.6 mph 28.8 mph N/A   Haze
7:14 PM -9.4 °F -28.9 °F -18.4 °F 65% 29.49 in 2.5 mi NW 11.5 mph 29.9 mph N/A Snow Light Snow
7:33 PM -9.4 °F -32.8 °F -18.4 °F 65% 29.50 in 2.0 mi NW 17.3 mph 27.6 mph N/A   Haze
7:54 PM -9.4 °F -31.4 °F -18.4 °F 65% 29.52 in 2.0 mi NW 15.0 mph 25.3 mph N/A Snow Light Snow
8:13 PM -11.2 °F -37.0 °F -20.2 °F 64% 29.53 in 1.5 mi NW 20.7 mph 28.8 mph N/A Snow Light Snow
8:34 PM -11.2 °F -35.2 °F -20.2 °F 64% 29.54 in 2.5 mi NW 17.3 mph 26.5 mph N/A   Haze
8:53 PM -11.2 °F -32.9 °F -20.2 °F 64% 29.56 in 2.5 mi NW 13.8 mph 29.9 mph N/A Snow Light Snow
9:13 PM -11.2 °F -33.7 °F -22.0 °F 59% 29.57 in 5.0 mi NW 15.0 mph 27.6 mph N/A   Haze
9:34 PM -13.0 °F -36.8 °F -23.8 °F 59% 29.58 in 3.0 mi NW 16.1 mph 31.1 mph N/A   Haze
9:53 PM -14.8 °F -35.6 °F -23.8 °F 64% 29.60 in 3.0 mi NW 11.5 mph 28.8 mph N/A   Scattered Clouds
10:14 PM -14.8 °F -36.6 °F -23.8 °F 64% 29.61 in 5.0 mi NW 12.7 mph 23.0 mph N/A   Haze
10:34 PM -14.8 °F -39.1 °F -23.8 °F 64% 29.63 in 4.0 mi NW 16.1 mph 33.4 mph N/A   Haze
10:53 PM -14.8 °F -36.6 °F -25.6 °F 58% 29.64 in 5.0 mi NW 12.7 mph 27.6 mph N/A   Haze
11:12 PM -14.8 °F -40.5 °F -25.6 °F 58% 29.65 in 5.0 mi NW 18.4 mph 27.6 mph N/A   Haze
11:34 PM -16.6 °F -41.4 °F -25.6 °F 64% 29.66 in 7.0 mi NW 16.1 mph 24.2 mph N/A   Clear
11:53 PM -16.6 °F -41.4 °F -25.6 °F 64% 29.66 in 4.0 mi NW 16.1 mph 26.5 mph N/A   Haze